Retour au catalogue

STARLINK-1357

ActifCommunicationsVLEO
NORAD 45565·PAYLOAD·🇺🇸 United States

Lancé Apr 22, 2020 depuis Cape Canaveral Space Force Station

Loading…

Prochains Passages (prochaines 24 heures)

TLE

FraisSource: CelesTrak SupGP

Époque: Sep 14, 2026, 21:21 UTC

1 45565C 20025AL  26257.89006944  .00086871  00000+0  38787-3 0  2578
2 45565  53.0355 182.4123 0007284  96.7901 192.9454 15.83442924    19

Suivez STARLINK-1357 en temps réel avec AllMySat

Download on the App Store